2020/11/12 17:02, 19.71
2020/11/12 17:04, 19.73
2020/11/12 17:06, 19.69
2020/11/12 17:08, 19.64
2020/11/12 17:10, 19.59
2020/11/12 17:12, 19.6
2020/11/12 17:14, 19.62
2020/11/12 17:16, 19.64
2020/11/12 17:18, 19.68
2020/11/12 17:20, 19.69
2020/11/12 17:22, 19.66
2020/11/12 17:24, 19.63
2020/11/12 17:26, 19.59
2020/11/12 17:28, 19.57
2020/11/12 17:30, 19.58
2020/11/12 17:32, 19.65
2020/11/12 17:34, 19.63
2020/11/12 17:36, 19.67
2020/11/12 17:38, 19.67
2020/11/12 17:40, 19.67
2020/11/12 17:42, 19.71
2020/11/12 17:44, 19.73
2020/11/12 17:46, 19.7
2020/11/12 17:48, 19.68
2020/11/12 17:50, 19.68
2020/11/12 17:52, 19.72
2020/11/12 17:54, 19.69
2020/11/12 17:56, 19.68
2020/11/12 17:58, 19.66
2020/11/12 18:00, 19.67
2020/11/12 18:04, 19.6
2020/11/12 18:06, 19.58
2020/11/12 18:08, 19.62
2020/11/12 18:10, 19.67
2020/11/12 18:12, 19.67
2020/11/12 18:14, 19.64
2020/11/12 18:16, 19.67
2020/11/12 18:18, 19.68
2020/11/12 18:20, 19.65
2020/11/12 18:24, 19.65
2020/11/12 18:26, 19.7
2020/11/12 18:28, 19.73
2020/11/12 18:30, 19.64
2020/11/12 18:32, 19.55
2020/11/12 18:34, 19.55
2020/11/12 18:36, 19.6
2020/11/12 18:38, 19.61
2020/11/12 18:40, 19.6
2020/11/12 18:44, 19.63
2020/11/12 18:46, 19.66
2020/11/12 19:04, 19.8
2020/11/12 19:10, 19.77
2020/11/12 19:12, 19.77
2020/11/12 19:14, 19.74
2020/11/12 19:16, 19.74
2020/11/12 19:18, 19.76
2020/11/12 19:20, 19.73
2020/11/12 19:24, 19.69
2020/11/12 19:26, 19.67
2020/11/12 19:28, 19.72
2020/11/12 19:30, 19.73
2020/11/12 19:32, 19.75
2020/11/12 19:34, 19.78
2020/11/12 19:36, 19.77
2020/11/12 19:38, 19.77
2020/11/12 19:40, 19.74
2020/11/12 19:44, 19.76
2020/11/12 19:46, 19.76
2020/11/12 19:48, 19.77
2020/11/12 19:50, 19.8
2020/11/12 19:52, 19.79
2020/11/12 19:54, 19.77
2020/11/12 19:56, 19.8
2020/11/12 19:58, 19.79
2020/11/12 20:00, 19.79
2020/11/12 20:02, 19.83
2020/11/12 20:04, 19.85
2020/11/12 20:06, 19.84
2020/11/12 20:08, 19.81
2020/11/12 20:10, 19.83
2020/11/12 20:12, 19.84
2020/11/12 20:14, 19.84
2020/11/12 20:16, 19.81
2020/11/12 20:18, 19.8
2020/11/12 20:20, 19.8
2020/11/12 20:22, 19.79
2020/11/12 20:24, 19.77
2020/11/12 20:26, 19.75
2020/11/12 20:28, 19.75
2020/11/12 20:30, 19.69
2020/11/12 20:32, 19.71
2020/11/12 20:34, 19.77
2020/11/12 20:36, 19.74
2020/11/12 20:38, 19.74
2020/11/12 20:40, 19.76
2020/11/12 20:42, 19.75
2020/11/12 20:44, 19.73
2020/11/12 20:46, 19.76
2020/11/12 20:48, 19.78
2020/11/12 20:50, 19.79
2020/11/12 20:52, 19.79
2020/11/12 20:54, 19.76
2020/11/12 20:56, 19.78
2020/11/12 20:58, 19.76
2020/11/12 21:00, 19.73
2020/11/12 21:04, 19.7
2020/11/12 21:06, 19.69
2020/11/12 21:08, 19.68
2020/11/12 21:10, 19.66
2020/11/12 21:12, 19.64
2020/11/12 21:14, 19.62
2020/11/12 21:16, 19.61
2020/11/12 21:18, 19.6
2020/11/12 21:20, 19.59
2020/11/12 21:24, 19.58
2020/11/12 21:26, 19.57
2020/11/12 21:28, 19.56
2020/11/12 21:30, 19.55
2020/11/12 21:32, 19.55
2020/11/12 21:34, 19.52
2020/11/12 21:36, 19.49
2020/11/12 21:38, 19.46
2020/11/12 21:40, 19.42
2020/11/12 21:42, 19.39
2020/11/12 21:44, 19.35
2020/11/12 21:46, 19.32
2020/11/12 21:48, 19.28
2020/11/12 21:50, 19.23
2020/11/12 21:52, 19.17
2020/11/12 21:54, 19.12
2020/11/12 21:56, 19.04
2020/11/12 21:58, 18.96
2020/11/12 22:00, 18.85
2020/11/12 22:04, 18.6
2020/11/12 22:06, 18.44
2020/11/12 22:08, 18.26
2020/11/12 22:10, 17.91
2020/11/12 22:12, 17.1
2020/11/12 22:14, 15.86
2020/11/12 22:16, 14.86
2020/11/12 22:18, 14.49
2020/11/12 22:20, 14.11
2020/11/12 22:24, 13.25
2020/11/12 22:26, 12.75
2020/11/12 22:28, 12.21
2020/11/12 22:30, 11.85
2020/11/12 22:32, 11.22
2020/11/12 22:34, 10.52
2020/11/12 22:36, 9.71
2020/11/12 22:38, 8.78
2020/11/12 22:40, 7.799
2020/11/12 22:44, 5.696
2020/11/12 22:46, 4.725
2020/11/12 22:48, 3.806
2020/11/12 22:50, 2.958
2020/11/12 22:52, 2.23
2020/11/12 22:54, 1.616
2020/11/12 22:56, 1.142
2020/11/12 22:58, 0.792
2020/11/12 23:00, 0.524
2020/11/12 23:02, 0.336
2020/11/12 23:04, 0.216
2020/11/12 23:06, 0.136
2020/11/12 23:08, 0.089
2020/11/12 23:10, 0.061
2020/11/12 23:12, 0.038
2020/11/12 23:14, 0.021
2020/11/12 23:16, 0.029
2020/11/12 23:18, 0.024
2020/11/12 23:20, 0
2020/11/13 11:28, 0
2020/11/13 11:30, 0
2020/11/13 11:32, 0.014
2020/11/13 11:34, 0.02
2020/11/13 11:36, 0.036
2020/11/13 11:38, 0.064
2020/11/13 11:40, 0.099
2020/11/13 11:44, 0.325
2020/11/13 11:46, 0.506
2020/11/13 11:48, 0.736
2020/11/13 11:50, 1.061
2020/11/13 11:52, 1.478
2020/11/13 11:54, 2.192
2020/11/13 11:56, 3.217
2020/11/13 11:58, 4.207
2020/11/13 12:00, 4.918
2020/11/13 12:04, 7.088
2020/11/13 12:06, 8.2
2020/11/13 12:08, 9.19
2020/11/13 12:10, 10.2
2020/11/13 12:12, 11.11
2020/11/13 12:14, 11.84
2020/11/13 12:16, 12.36
2020/11/13 12:18, 13.04
2020/11/13 12:20, 13.49
2020/11/13 12:24, 14.25
2020/11/13 12:26, 14.36
2020/11/13 12:28, 14.54
2020/11/13 12:30, 14.98
2020/11/13 12:32, 15.7
2020/11/13 12:34, 16.29
2020/11/13 12:36, 16.62
2020/11/13 12:38, 16.73
2020/11/13 12:40, 16.68
2020/11/13 12:44, 16.18
2020/11/13 12:46, 16.15
2020/11/13 12:48, 16.66
2020/11/13 12:50, 17.34
2020/11/13 12:52, 17.62
2020/11/13 12:54, 17.62
2020/11/13 12:56, 17.69
2020/11/13 12:58, 18.35
2020/11/13 13:00, 17.95
2020/11/13 13:04, 16.92
2020/11/13 13:06, 16.59
2020/11/13 13:08, 16.43
2020/11/13 13:10, 16.5
2020/11/13 13:12, 16.75
2020/11/13 13:14, 17.16
2020/11/13 13:16, 17.75
2020/11/13 13:18, 17.89
2020/11/13 13:20, 18.13
2020/11/13 13:24, 18.65
2020/11/13 13:26, 18.91
2020/11/13 13:28, 19.44
2020/11/13 13:30, 19.13
2020/11/13 13:32, 18.65
2020/11/13 13:34, 19.07
2020/11/13 13:36, 19.21
2020/11/13 13:38, 18.95
2020/11/13 13:40, 19.36
2020/11/13 13:44, 20
2020/11/13 13:46, 19.71
2020/11/13 13:48, 19.71
2020/11/13 13:50, 19.97
2020/11/13 13:52, 19.96
2020/11/13 13:54, 19.9
2020/11/13 13:56, 19.86
2020/11/13 13:58, 19.44
2020/11/13 14:00, 19.14
2020/11/13 14:04, 19.93
2020/11/13 14:06, 19.62
2020/11/13 14:08, 19.33
2020/11/13 14:10, 19.36
2020/11/13 14:12, 19.4
2020/11/13 14:14, 19.46
2020/11/13 14:16, 19.19
2020/11/13 14:18, 19.14
2020/11/13 14:20, 19.17
2020/11/13 14:24, 19.05
2020/11/13 14:26, 18.93
2020/11/13 14:28, 18.84
2020/11/13 14:30, 18.71
2020/11/13 14:32, 18.63
2020/11/13 14:34, 18.66
2020/11/13 14:36, 18.73
2020/11/13 14:38, 18.79
2020/11/13 14:40, 18.93
2020/11/13 14:44, 20.26
2020/11/13 14:46, 20.15
2020/11/13 14:48, 20.09
2020/11/13 14:50, 20.05
2020/11/13 14:52, 20.03
2020/11/13 14:54, 20.05
2020/11/13 14:56, 20.08
2020/11/13 14:58, 20
2020/11/13 15:00, 19.79
2020/11/13 15:02, 20.05
2020/11/13 15:04, 20.04
2020/11/13 15:06, 20.06
2020/11/13 15:08, 20.05
2020/11/13 15:10, 20.06
2020/11/13 15:12, 20.06
2020/11/13 15:14, 20.06
2020/11/13 15:16, 20.07
2020/11/13 15:18, 20.08
2020/11/13 15:20, 20.08
2020/11/13 15:22, 20.08
2020/11/13 15:24, 20.09
2020/11/13 15:26, 20.09
2020/11/13 15:28, 20.08
2020/11/13 15:30, 20.08
2020/11/13 15:32, 20.07
2020/11/13 15:34, 20.08
2020/11/13 15:36, 20.09
2020/11/13 15:38, 20.09
2020/11/13 15:40, 20.08
2020/11/13 15:42, 20.08
2020/11/13 15:44, 20.09
2020/11/13 15:46, 20.12
2020/11/13 15:48, 20.14
2020/11/13 15:50, 20.13
2020/11/13 15:52, 20.15
2020/11/13 15:54, 20.15
2020/11/13 15:56, 20.14
2020/11/13 15:58, 20.13
2020/11/13 16:00, 20.13
2020/11/13 16:04, 20.11
2020/11/13 16:06, 20.12
2020/11/13 16:08, 20.12
2020/11/13 16:10, 20.13
2020/11/13 16:12, 20.14
2020/11/13 16:14, 20.14
2020/11/13 16:16, 20.14
2020/11/13 16:18, 20.14
2020/11/13 16:20, 20.13
2020/11/13 16:24, 19.94
2020/11/13 16:26, 20
2020/11/13 16:28, 20.17
2020/11/13 16:30, 20.13
2020/11/13 16:32, 20.12
2020/11/13 16:34, 20.12
2020/11/13 16:36, 20.04
2020/11/13 16:38, 19.46
2020/11/13 16:40, 19.67
2020/11/13 16:44, 19.59
2020/11/13 16:46, 19.2
2020/11/13 16:48, 19.48
2020/11/13 16:50, 19.26
2020/11/13 16:52, 19.03
2020/11/13 16:54, 18.82
2020/11/13 16:56, 18.63
2020/11/13 16:58, 18.62
2020/11/13 17:00, 18.71
2020/11/13 17:04, 18.71
2020/11/13 17:06, 18.6
2020/11/13 17:08, 18.56
2020/11/13 17:10, 18.59
2020/11/13 17:12, 18.61
2020/11/13 17:14, 18.71
2020/11/13 17:16, 18.84
2020/11/13 17:18, 18.88
2020/11/13 17:20, 18.87
2020/11/13 17:24, 18.81
2020/11/13 17:26, 18.85
2020/11/13 17:28, 18.9
2020/11/13 17:30, 18.97
2020/11/13 17:32, 18.88
2020/11/13 17:34, 18.97
2020/11/13 17:36, 19
2020/11/13 17:38, 19.06
2020/11/13 17:40, 19.22
2020/11/13 17:44, 19.78
2020/11/13 17:46, 20
2020/11/13 17:48, 19.91
2020/11/13 17:50, 19.42
2020/11/13 17:52, 19.31
2020/11/13 17:54, 19.4
2020/11/13 17:56, 19.84
2020/11/13 17:58, 20.22
2020/11/13 18:00, 20.28
2020/11/13 18:04, 19.3
2020/11/13 18:06, 19.09
2020/11/13 18:08, 18.82
2020/11/13 18:10, 18.67
2020/11/13 18:12, 18.6
2020/11/13 18:14, 18.69
2020/11/13 18:16, 18.54
2020/11/13 18:18, 18.52
2020/11/13 18:20, 18.79
2020/11/13 18:24, 19.58
2020/11/13 18:26, 19.81
2020/11/13 18:28, 19.92
2020/11/13 18:30, 19.64
2020/11/13 18:32, 19.81
2020/11/13 18:34, 19.28
2020/11/13 18:36, 19.22
2020/11/13 18:38, 19.4
2020/11/13 18:40, 19.28
2020/11/13 18:44, 19.23
2020/11/13 18:46, 19.63
2020/11/13 18:48, 19.51
2020/11/13 18:50, 19.39
2020/11/13 18:52, 19.39
2020/11/13 18:54, 19.77
2020/11/13 18:56, 19.85
2020/11/13 18:58, 20.07
2020/11/13 19:00, 19.64
2020/11/13 19:04, 19.63
2020/11/13 19:06, 19.75
2020/11/13 19:08, 20.21
2020/11/13 19:10, 20.17
2020/11/13 19:12, 20.12
2020/11/13 19:14, 19.72
2020/11/13 19:16, 20.18
2020/11/13 19:18, 19.73
2020/11/13 19:20, 19.39
2020/11/13 19:24, 20.1
2020/11/13 19:26, 19.13
2020/11/13 19:28, 20.12
2020/11/13 19:30, 20.24
2020/11/13 19:32, 20.14
2020/11/13 19:34, 20.14
2020/11/13 19:36, 20.15
2020/11/13 19:38, 20.06
2020/11/13 19:40, 19.63
2020/11/13 19:44, 20.07
2020/11/13 19:46, 20.21
2020/11/13 19:48, 20.05
2020/11/13 19:50, 20.1
2020/11/13 19:52, 19.99
2020/11/13 19:54, 20.07
2020/11/13 19:56, 19.58
2020/11/13 19:58, 19.54
2020/11/13 20:00, 19.97
2020/11/13 20:04, 19.96
2020/11/13 20:06, 20
2020/11/13 20:08, 19.16
2020/11/13 20:10, 19.61
2020/11/13 20:12, 20.28
2020/11/13 20:14, 20.1
2020/11/13 20:16, 20.05
2020/11/13 20:18, 20.05
2020/11/13 20:20, 20.07
2020/11/13 20:24, 19.6
2020/11/13 20:26, 19.93
2020/11/13 20:28, 20.11
2020/11/13 20:30, 20.09
2020/11/13 20:32, 20.07
2020/11/13 20:34, 20.07
2020/11/13 20:36, 20.06
2020/11/13 20:38, 20.06
2020/11/13 20:40, 20.04
2020/11/13 20:44, 20.02
2020/11/13 20:46, 18.79
2020/11/13 20:48, 19.55
2020/11/13 20:50, 19.08
2020/11/13 20:52, 18.58
2020/11/13 20:54, 19.18
2020/11/13 20:56, 19.15
2020/11/13 20:58, 20
2020/11/13 21:00, 19.96
2020/11/13 21:02, 18.64
2020/11/13 21:04, 18.32
2020/11/13 21:06, 18.37
2020/11/13 21:08, 18.7
2020/11/13 21:10, 18.49
2020/11/13 21:12, 19.01
2020/11/13 21:14, 19.91
2020/11/13 21:16, 19.92
2020/11/13 21:18, 19.85
2020/11/13 21:20, 19.83
2020/11/13 21:22, 19.78
2020/11/13 21:24, 19.76
2020/11/13 21:26, 19.73
2020/11/13 21:28, 19.71
2020/11/13 21:30, 19.68
2020/11/13 21:32, 19.65
2020/11/13 21:34, 19.62
2020/11/13 21:36, 19.56
2020/11/13 21:38, 19.51
2020/11/13 21:40, 18.97
2020/11/13 21:42, 17.66
2020/11/13 21:44, 17.6
2020/11/13 21:46, 17.65
2020/11/13 21:48, 17.25
2020/11/13 21:50, 17.08
2020/11/13 21:52, 17.23
2020/11/13 21:54, 17.09
2020/11/13 21:56, 18.01
2020/11/13 21:58, 18.57
2020/11/13 22:00, 18.52
2020/11/13 22:04, 18.23
2020/11/13 22:06, 17.98
2020/11/13 22:08, 17.49
2020/11/13 22:10, 16.95
2020/11/13 22:12, 16.2
2020/11/13 22:14, 14.89
2020/11/13 22:16, 14
2020/11/13 22:18, 13.67
2020/11/13 22:20, 13.41
2020/11/13 22:24, 12.53
2020/11/13 22:26, 12.06
2020/11/13 22:28, 11.64
2020/11/13 22:30, 10.88
2020/11/13 22:32, 9.99
2020/11/13 22:34, 9.09
2020/11/13 22:36, 8.12
2020/11/13 22:38, 7.055
2020/11/13 22:40, 5.909
2020/11/13 22:44, 3.753
2020/11/13 22:46, 2.865
2020/11/13 22:48, 2.116
2020/11/13 22:50, 1.53
2020/11/13 22:52, 1.096
2020/11/13 22:54, 0.772
2020/11/13 22:56, 0.538
2020/11/13 22:58, 0.366
2020/11/13 23:00, 0.246
2020/11/13 23:04, 0.106
2020/11/13 23:06, 0.082
2020/11/13 23:08, 0.053
2020/11/13 23:10, 0.034
2020/11/13 23:12, 0.018
2020/11/13 23:14, 0.009
2020/11/13 23:16, 0
2020/11/13 23:18, 0
2020/11/14 11:22, 0.013
2020/11/14 11:24, 0.023
2020/11/14 11:26, 0.039
2020/11/14 11:28, 0.06
2020/11/14 11:30, 0.087
2020/11/14 11:32, 0.119
2020/11/14 11:34, 0.183
2020/11/14 11:36, 0.27
2020/11/14 11:38, 0.392
2020/11/14 11:40, 0.563
2020/11/14 11:42, 0.795
2020/11/14 11:44, 1.131
2020/11/14 11:46, 1.583
2020/11/14 11:48, 2.174
2020/11/14 11:50, 2.913
2020/11/14 11:52, 3.792
2020/11/14 11:54, 4.802
2020/11/14 11:56, 5.879
2020/11/14 11:58, 6.939
2020/11/14 12:00, 7.943
2020/11/14 12:02, 8.92
2020/11/14 12:04, 9.87
2020/11/14 12:06, 10.84
2020/11/14 12:08, 11.73
2020/11/14 12:10, 12.2
2020/11/14 12:12, 12.81
2020/11/14 12:14, 13.35
2020/11/14 12:16, 13.81
2020/11/14 12:18, 14.23
2020/11/14 12:20, 14.59
2020/11/14 12:22, 14.91
2020/11/14 12:24, 15.22
2020/11/14 12:26, 15.53
2020/11/14 12:28, 15.87
2020/11/14 12:30, 16.39
2020/11/14 12:32, 16.72
2020/11/14 12:34, 17.29
2020/11/14 12:36, 17.96
2020/11/14 12:38, 18.22
2020/11/14 12:40, 18.64
2020/11/14 12:42, 18.96
2020/11/14 12:44, 19.05
2020/11/14 12:46, 19.12
2020/11/14 12:48, 18.98
2020/11/14 12:50, 18.64
2020/11/14 12:52, 18.36
2020/11/14 12:54, 18.57
2020/11/14 12:56, 19.02
2020/11/14 12:58, 18.46
2020/11/14 13:00, 18.39
2020/11/14 13:02, 18.46
2020/11/14 13:04, 18.69
2020/11/14 13:06, 19.8
2020/11/14 13:08, 19.9
2020/11/14 13:10, 19.86
2020/11/14 13:12, 19.81
2020/11/14 13:14, 19.8
2020/11/14 13:16, 19.78
2020/11/14 13:18, 19.79
2020/11/14 13:20, 19.25
2020/11/14 13:24, 19.8
2020/11/14 13:26, 19.33
2020/11/14 13:28, 19.4
2020/11/14 13:30, 19.15
2020/11/14 13:32, 20.03
2020/11/14 13:34, 19.98
2020/11/14 13:36, 19.96
2020/11/14 13:38, 19.59
2020/11/14 13:40, 19.32
2020/11/14 13:42, 19.96
2020/11/14 13:44, 19.97
2020/11/14 13:46, 19.99
2020/11/14 13:48, 19.97
2020/11/14 13:50, 19.94
2020/11/14 13:52, 19.23
2020/11/14 13:54, 19.14
2020/11/14 13:56, 19.97
2020/11/14 13:58, 19.62
2020/11/14 14:00, 19.74
2020/11/14 14:02, 20.1
2020/11/14 14:04, 20.02
2020/11/14 14:06, 19.96
2020/11/14 14:08, 19.84
2020/11/14 14:10, 19.29
2020/11/14 14:12, 20.08
2020/11/14 14:14, 20.03
2020/11/14 14:16, 20.01
2020/11/14 14:18, 20
2020/11/14 14:20, 19.98
2020/11/14 14:22, 19.96
2020/11/14 14:24, 19.76
2020/11/14 14:26, 19.87
2020/11/14 14:28, 20.03
2020/11/14 14:30, 19.97
2020/11/14 14:32, 19.98
2020/11/14 14:34, 19.98
2020/11/14 14:36, 19.95
2020/11/14 14:38, 19.93
2020/11/14 14:40, 19.92
2020/11/14 14:42, 19.91
2020/11/14 14:44, 19.92
2020/11/14 14:46, 19.91
2020/11/14 14:48, 19.92
2020/11/14 14:50, 19.95
2020/11/14 14:52, 19.95
2020/11/14 14:54, 19.95
2020/11/14 14:56, 19.96
2020/11/14 14:58, 19.96
2020/11/14 15:00, 19.97
2020/11/14 15:04, 19.98
2020/11/14 15:06, 19.96
2020/11/14 15:08, 19.95
2020/11/14 15:10, 19.96
2020/11/14 15:12, 19.96
2020/11/14 15:14, 19.95
2020/11/14 15:16, 19.94
2020/11/14 15:18, 19.93
2020/11/14 15:20, 19.9
2020/11/14 15:24, 19.83
2020/11/14 15:26, 19.85
2020/11/14 15:28, 19.84
2020/11/14 15:30, 19.83
2020/11/14 15:32, 19.86
2020/11/14 15:34, 19.84
2020/11/14 15:36, 19.84
2020/11/14 15:38, 19.86
2020/11/14 15:40, 19.88
2020/11/14 15:44, 19.9
2020/11/14 15:46, 19.89
2020/11/14 15:48, 19.98
2020/11/14 15:50, 20.03
2020/11/14 15:52, 19.93
2020/11/14 15:54, 19.91
2020/11/14 15:56, 19.9
2020/11/14 15:58, 19.9
2020/11/14 16:00, 19.94
2020/11/14 16:02, 19.93
2020/11/14 16:04, 19.95
2020/11/14 16:06, 20.05
2020/11/14 16:08, 19.94
2020/11/14 16:10, 19.96
2020/11/14 16:12, 19.99
2020/11/14 16:14, 20.06
2020/11/14 16:16, 20.03
2020/11/14 16:18, 19.94
2020/11/14 16:20, 19.89
2020/11/14 16:22, 19.84
2020/11/14 16:24, 19.79
2020/11/14 16:26, 19.78
2020/11/14 16:28, 19.76
2020/11/14 16:30, 19.74
2020/11/14 16:32, 19.76
2020/11/14 16:34, 19.85
2020/11/14 16:36, 19.83
2020/11/14 16:38, 19.79
2020/11/14 16:40, 19.72
2020/11/14 16:42, 19.68
2020/11/14 16:44, 19.75
2020/11/14 16:46, 19.67
2020/11/14 16:48, 19.73
2020/11/14 16:50, 19.79
2020/11/14 16:52, 19.8
2020/11/14 16:54, 20
2020/11/14 16:56, 19.89
2020/11/14 16:58, 19.9
2020/11/14 17:00, 19.81
2020/11/14 17:02, 19.96
2020/11/14 17:04, 19.92
2020/11/14 17:06, 20.01
2020/11/14 17:08, 19.86
2020/11/14 17:10, 19.8
2020/11/14 17:12, 19.74
2020/11/14 17:14, 19.65
2020/11/14 17:16, 19.67
2020/11/14 17:18, 19.78
2020/11/14 17:20, 19.77
2020/11/14 17:22, 19.68
2020/11/14 17:24, 19.67
2020/11/14 17:26, 19.69
2020/11/14 17:28, 19.75
2020/11/14 17:30, 19.73
2020/11/14 17:32, 19.78
2020/11/14 17:34, 19.74
2020/11/14 17:36, 19.75
2020/11/14 17:38, 19.76
2020/11/14 17:40, 19.77
2020/11/14 17:42, 19.63
2020/11/14 17:44, 19.56
2020/11/14 17:46, 19.58
2020/11/14 17:48, 19.66
2020/11/14 17:50, 19.65
2020/11/14 17:52, 19.64
2020/11/14 17:54, 19.63
2020/11/14 17:56, 19.58
2020/11/14 17:58, 19.45
2020/11/14 18:00, 19.41
2020/11/14 18:02, 19.43
2020/11/14 18:04, 19.42
2020/11/14 18:06, 19.41
2020/11/14 18:08, 19.36
2020/11/14 18:10, 19.37
2020/11/14 18:12, 19.36
2020/11/14 18:14, 19.35
2020/11/14 18:16, 19.33
2020/11/14 18:18, 19.32
2020/11/14 18:20, 19.3
2020/11/14 18:22, 19.3
2020/11/14 18:24, 19.29
2020/11/14 18:26, 19.29
2020/11/14 18:28, 19.28
2020/11/14 18:30, 19.26
2020/11/14 18:32, 19.26
2020/11/14 18:34, 19.28
2020/11/14 18:36, 19.31
2020/11/14 18:38, 19.4
2020/11/14 18:40, 19.58
2020/11/14 18:42, 19.56
2020/11/14 18:44, 19.56
2020/11/14 18:46, 19.6
2020/11/14 18:48, 19.46
2020/11/14 18:50, 19.42
2020/11/14 18:52, 19.44
2020/11/14 18:54, 19.5
2020/11/14 18:56, 19.47
2020/11/14 18:58, 19.39
2020/11/14 19:00, 19.4
2020/11/14 19:04, 19.32
2020/11/14 19:06, 19.36
2020/11/14 19:08, 19.35
2020/11/14 19:10, 19.35
2020/11/14 19:12, 19.29
2020/11/14 19:14, 19.21
2020/11/14 19:16, 19.16
2020/11/14 19:18, 19.12
2020/11/14 19:20, 19.11
2020/11/14 19:24, 19.09
2020/11/14 19:26, 19.05
2020/11/14 19:28, 19
2020/11/14 19:30, 18.95
2020/11/14 19:32, 18.92
2020/11/14 19:34, 18.9
2020/11/14 19:36, 18.87
2020/11/14 19:38, 18.84
2020/11/14 19:40, 18.79
2020/11/14 19:44, 18.67
2020/11/14 19:46, 18.65
2020/11/14 19:48, 18.63
2020/11/14 19:50, 18.59
2020/11/14 19:52, 18.56
2020/11/14 19:54, 18.55
2020/11/14 19:56, 18.55
2020/11/14 19:58, 18.53
2020/11/14 20:00, 18.51
2020/11/14 20:04, 18.49
2020/11/14 20:06, 18.47
2020/11/14 20:08, 18.44
2020/11/14 20:10, 18.4
2020/11/14 20:12, 18.37
2020/11/14 20:14, 18.34
2020/11/14 20:16, 18.29
2020/11/14 20:18, 18.24
2020/11/14 20:20, 18.18
2020/11/14 20:24, 18.12
2020/11/14 20:26, 18.11
2020/11/14 20:28, 18.08
2020/11/14 20:30, 18.07
2020/11/14 20:32, 18.04
2020/11/14 20:34, 18.01
2020/11/14 20:36, 17.94
2020/11/14 20:38, 17.88
2020/11/14 20:40, 17.86
2020/11/14 20:44, 17.81
2020/11/14 20:46, 17.79
2020/11/14 20:48, 17.79
2020/11/14 20:50, 17.82
2020/11/14 20:52, 17.78
2020/11/14 20:54, 17.71
2020/11/14 20:56, 17.67
2020/11/14 20:58, 17.61
2020/11/14 21:00, 17.62
2020/11/14 21:04, 17.49
2020/11/14 21:06, 17.4
2020/11/14 21:08, 17.37
2020/11/14 21:10, 17.33
2020/11/14 21:12, 17.26
2020/11/14 21:14, 17.2
2020/11/14 21:16, 17.16
2020/11/14 21:18, 17.08
2020/11/14 21:20, 16.96
2020/11/14 21:24, 16.65
2020/11/14 21:26, 16.48
2020/11/14 21:28, 16.32
2020/11/14 21:30, 16.23
2020/11/14 21:32, 15.99
2020/11/14 21:34, 15.64
2020/11/14 21:36, 15.41
2020/11/14 21:38, 15.22
2020/11/14 21:40, 15.09
2020/11/14 21:44, 14.67
2020/11/14 21:46, 14.46
2020/11/14 21:48, 14.46
2020/11/14 21:50, 14.41
2020/11/14 21:52, 14.13
2020/11/14 21:54, 13.84
2020/11/14 21:56, 13.52
2020/11/14 21:58, 13.33
2020/11/14 22:00, 13.01
2020/11/14 22:04, 12.09
2020/11/14 22:06, 11.75
2020/11/14 22:08, 11.16
2020/11/14 22:10, 10.69
2020/11/14 22:12, 10.45
2020/11/14 22:14, 10.15
2020/11/14 22:16, 9.66
2020/11/14 22:18, 9.26
2020/11/14 22:20, 8.75
2020/11/14 22:24, 7.89
2020/11/14 22:26, 7.407
2020/11/14 22:28, 6.569
2020/11/14 22:30, 5.528
2020/11/14 22:32, 4.571
2020/11/14 22:34, 3.6
2020/11/14 22:36, 2.798
2020/11/14 22:38, 2.105
2020/11/14 22:40, 1.478
2020/11/14 22:44, 0.693
2020/11/14 22:46, 0.469
2020/11/14 22:48, 0.315
2020/11/14 22:50, 0.212
2020/11/14 22:52, 0.131
2020/11/14 22:54, 0.083
2020/11/14 22:56, 0.05
2020/11/14 22:58, 0.023
2020/11/14 23:00, 0.008
2020/11/15 10:56, 0
2020/11/15 10:58, 0
2020/11/15 11:00, 0.001
2020/11/15 11:02, 0.003
2020/11/15 11:04, 0.003
2020/11/15 11:06, 0
2020/11/15 11:46, 0.009
2020/11/15 11:48, 0.034
2020/11/15 11:50, 0.068
2020/11/15 11:52, 0.098
2020/11/15 11:54, 0.141
2020/11/15 11:56, 0.17
2020/11/15 11:58, 0.41
2020/11/15 12:00, 0.659
2020/11/15 12:02, 0.714
2020/11/15 12:04, 0.757
2020/11/15 12:06, 1.088
2020/11/15 12:08, 1.659
2020/11/15 12:10, 2.652
2020/11/15 12:12, 3.815
2020/11/15 12:14, 5.112
2020/11/15 12:16, 6.141
2020/11/15 12:18, 6.781
2020/11/15 12:20, 6.836
2020/11/15 12:22, 6.927
2020/11/15 12:24, 7.153
2020/11/15 12:26, 7.419
2020/11/15 12:28, 8
2020/11/15 12:30, 9.05
2020/11/15 12:32, 9.34
2020/11/15 12:34, 10.43
2020/11/15 12:36, 11.21
2020/11/15 12:38, 11.54
2020/11/15 12:40, 12.92
2020/11/15 12:42, 14.58
2020/11/15 12:44, 15.22
2020/11/15 12:46, 15.43
2020/11/15 12:48, 14.62
2020/11/15 12:50, 12.78
2020/11/15 12:52, 12.28
2020/11/15 12:54, 12.47
2020/11/15 12:56, 12.6
2020/11/15 12:58, 13.34
2020/11/15 13:00, 14.6
2020/11/15 13:02, 15.83
2020/11/15 13:04, 16.15
2020/11/15 13:06, 15.63
2020/11/15 13:08, 14.57
2020/11/15 13:10, 13.71
2020/11/15 13:12, 14.01
2020/11/15 13:14, 14.78
2020/11/15 13:16, 15.33
2020/11/15 13:18, 15.34
2020/11/15 13:20, 15.13
2020/11/15 13:22, 15.65
2020/11/15 13:24, 16.35
2020/11/15 13:26, 16.41
2020/11/15 13:28, 16.18
2020/11/15 13:30, 15.75
2020/11/15 13:32, 15.29
2020/11/15 13:34, 15.44
2020/11/15 13:36, 15.98
2020/11/15 13:38, 16.39
2020/11/15 13:40, 16.28
2020/11/15 13:42, 16.36
2020/11/15 13:44, 16.54
2020/11/15 13:46, 16.79
2020/11/15 13:48, 16.74
2020/11/15 13:50, 15.94
2020/11/15 13:52, 15.97
2020/11/15 13:54, 16.07
2020/11/15 13:56, 15.54
2020/11/15 13:58, 15.52
2020/11/15 14:00, 15.96
2020/11/15 14:02, 15.86
2020/11/15 14:04, 16.05
2020/11/15 14:06, 16.52
2020/11/15 14:08, 16.54
2020/11/15 14:10, 16.22
2020/11/15 14:12, 16.22
2020/11/15 14:14, 16.45
2020/11/15 14:16, 17.15
2020/11/15 14:18, 17.17
2020/11/15 14:20, 16.8
2020/11/15 14:22, 16.69
2020/11/15 14:24, 16.71
2020/11/15 14:26, 16.82
2020/11/15 14:28, 16.83
2020/11/15 14:30, 16.55
2020/11/15 14:32, 16.47
2020/11/15 14:34, 16.46
2020/11/15 14:36, 16.74
2020/11/15 14:38, 16.45
2020/11/15 14:40, 16.39
2020/11/15 14:42, 16.48
2020/11/15 14:44, 16.4
2020/11/15 14:46, 15.97
2020/11/15 14:48, 16.15
2020/11/15 14:50, 16.49
2020/11/15 14:52, 16.65
2020/11/15 14:54, 16.98
2020/11/15 14:56, 17.35
2020/11/15 14:58, 17.37
2020/11/15 15:00, 17.58
2020/11/15 15:04, 17.74
2020/11/15 15:06, 17.6
2020/11/15 15:08, 17.94
2020/11/15 15:10, 17.91
2020/11/15 15:12, 17.98
2020/11/15 15:14, 18.1
2020/11/15 15:16, 18.01
2020/11/15 15:18, 18.15
2020/11/15 15:20, 18.09
2020/11/15 15:24, 18.83
2020/11/15 15:26, 18.93
2020/11/15 15:28, 19.09
2020/11/15 15:30, 19.22
2020/11/15 15:32, 19.11
2020/11/15 15:34, 18.5
2020/11/15 15:36, 18.36
2020/11/15 15:38, 18.39
2020/11/15 15:40, 18.5
2020/11/15 15:44, 18.54
2020/11/15 15:46, 18.27
2020/11/15 15:48, 17.64
2020/11/15 15:50, 17.89
2020/11/15 15:52, 18.64
2020/11/15 15:54, 18.98
2020/11/15 15:56, 18.93
2020/11/15 15:58, 18.99
2020/11/15 16:00, 18.88
2020/11/15 16:04, 18.3
2020/11/15 16:06, 18.48
2020/11/15 16:08, 18.52
2020/11/15 16:10, 18.59